Tracking 28565 objects as of 3-Mar-2024
HD Live streaming from Space Station
objects crossing your sky now

SL-16 DEB

Track SL-16 DEB now!
10-day predictions


NORAD ID: 22357
Int'l Code: 1992-093AW
Perigee: 557.6 km
Apogee: 638.6 km
Inclination: 70.9 °
Period: 96.5 minutes
Semi major axis: 6969 km
RCS: 0.0561 m2 (small)
Launch date: December 25, 1992
Source: Commonwealth of Independent States (former USSR) (CIS)
Launch site: TYURATAM MISSILE AND SPACE COMPLEX (TTMTR)

Note: This is SATELLITE DEBRIS
Your satellite tracking list
Your tracking list is empty




NASA's NSSDC Master Catalog

Two Line Element Set (TLE):
1 22357U 92093AW  24062.68591455  .00013814  00000-0  13145-2 0  9992
2 22357  70.8644 147.8477 0058163 237.4936 241.0201 14.92236793643789
Source of the keplerian elements: AFSPC